AD8BV Weather Reports


time (UTC)temp
C
wind
direction
speed
KPH
gust
KPH
rain 1hr
cm
rain 24hr
cm
rain mn
cm
humidity
%
barometer
mb
20260510014908 13 335 4.8 4.8 0.00 0.00 0.00 52 1009.0
20260510014406 13 297 3.2 3.2 0.00 0.00 0.00 51 1009.0
20260510013903 14 318 4.8 4.8 0.00 0.00 0.00 50 1008.8
20260510013357 14 297 0.0 0.0 0.00 0.00 0.00 52 1008.7
20260510012852 15 273 1.6 1.6 0.00 0.00 0.00 50 1008.8
20260510012348 15 45 4.8 4.8 0.00 0.00 0.00 49 1008.5
20260510011843 15 316 1.6 3.2 0.00 0.00 0.00 50 1008.1
20260510011338 15 287 3.2 8.0 0.00 0.00 0.00 49 1008.0
20260510010835 15 347 6.4 9.7 0.00 0.00 0.00 50 1007.9
20260510010332 16 291 1.6 1.6 0.00 0.00 0.00 51 1007.7
20260510005828 16 297 3.2 3.2 0.00 0.00 0.00 54 1007.4
20260510005325 16 224 1.6 1.6 0.00 0.00 0.00 54 1007.3
20260510004823 16 279 3.2 3.2 0.00 0.00 0.00 52 1007.0
20260510004320 17 342 1.6 4.8 0.00 0.00 0.00 52 1006.9
20260510003818 17 356 8.0 9.7 0.00 0.00 0.00 50 1006.7
20260510003315 17 285 1.6 3.2 0.00 0.00 0.00 50 1006.4
20260510002813 18 268 0.0 0.0 0.00 0.00 0.00 50 1006.3
20260510002311 18 217 3.2 4.8 0.00 0.00 0.00 49 1006.2
20260510001807 18 284 1.6 1.6 0.00 0.00 0.00 51 1005.8
20260510001305 18 277 1.6 1.6 0.00 0.00 0.00 52 1005.9
20260510000801 18 265 1.6 1.6 0.00 0.00 0.00 52 1006.1
20260510000259 18 273 0.0 1.6 0.00 0.00 0.00 54 1005.8
20260509235756 18 281 1.6 1.6 0.00 0.00 0.00 53 1005.6
20260509235252 18 263 0.0 0.0 0.00 0.00 0.00 51 1005.6
20260509234747 18 252 1.6 1.6 0.00 0.00 0.00 50 1005.4
20260509234245 18 273 1.6 1.6 0.00 0.00 0.00 51 1005.4
20260509233743 19 268 1.6 1.6 0.00 0.00 0.00 51 1005.5
20260509233240 19 226 1.6 1.6 0.00 0.00 0.00 50 1005.4
20260509232736 19 267 0.0 0.0 0.00 0.00 0.00 51 1005.2
20260509232233 19 269 1.6 1.6 0.00 0.00 0.00 50 1005.4
20260509231730 19 298 6.4 11.3 0.00 0.00 0.00 48 1005.3
20260509231227 19 286 1.6 3.2 0.00 0.00 0.00 49 1005.2
20260509230725 19 330 1.6 1.6 0.00 0.00 0.00 49 1005.4
20260509230221 19 303 8.0 9.7 0.00 0.00 0.00 48 1005.4
20260509225716 20 274 3.2 4.8 0.00 0.00 0.00 48 1005.3
20260509225212 20 262 3.2 3.2 0.00 0.00 0.00 45 1005.2
20260509224708 20 288 0.0 0.0 0.00 0.00 0.00 48 1005.3
20260509224205 20 324 3.2 3.2 0.00 0.00 0.00 44 1005.2
20260509223702 20 294 3.2 3.2 0.00 0.00 0.00 44 1005.2
20260509223159 19 285 1.6 1.6 0.00 0.00 0.00 46 1005.4
20260509222657 20 304 1.6 1.6 0.00 0.00 0.00 45 1005.5
20260509222152 20 277 1.6 1.6 0.00 0.00 0.00 44 1005.3
20260509221648 20 203 3.2 4.8 0.00 0.00 0.00 43 1005.0
20260509221144 20 288 4.8 4.8 0.00 0.00 0.00 43 1005.1
20260509220640 20 273 6.4 9.7 0.00 0.00 0.00 42 1005.0
20260509220136 20 229 4.8 4.8 0.00 0.00 0.00 41 1005.2
20260509215632 20 264 11.3 17.7 0.00 0.00 0.00 41 1005.3
20260509215129 20 298 1.6 1.6 0.00 0.00 0.00 44 1005.3
20260509214626 20 342 11.3 17.7 0.00 0.00 0.00 41 1005.0
20260509214123 20 223 4.8 8.0 0.00 0.00 0.00 40 1005.3
20260509213619 21 277 1.6 1.6 0.00 0.00 0.00 40 1005.2
20260509213115 21 329 4.8 9.7 0.00 0.00 0.00 39 1005.0
20260509212613 21 57 6.4 9.7 0.00 0.00 0.00 39 1005.1
20260509212110 20 326 4.8 9.7 0.00 0.00 0.00 39 1004.9
20260509211606 20 253 3.2 3.2 0.00 0.00 0.00 41 1005.0
20260509211103 19 263 1.6 1.6 0.00 0.00 0.00 39 1005.0
20260509210559 19 250 3.2 3.2 0.00 0.00 0.00 39 1005.0
20260509210056 20 126 3.2 8.0 0.00 0.00 0.00 40 1005.0
20260509205556 20 250 4.8 4.8 0.00 0.00 0.00 39 1005.1
20260509205051 21 282 1.6 3.2 0.00 0.00 0.00 37 1005.2
20260509204548 21 250 8.0 11.3 0.00 0.00 0.00 38 1005.1
20260509204044 21 269 8.0 12.9 0.00 0.00 0.00 40 1005.1
20260509203540 21 276 0.0 1.6 0.00 0.00 0.00 40 1004.9
20260509203038 20 276 0.0 1.6 0.00 0.00 0.00 45 1005.1
20260509202533 20 314 3.2 4.8 0.00 0.00 0.00 43 1005.0
20260509202029 21 30 3.2 8.0 0.00 0.00 0.00 43 1005.0
20260509201523 21 274 4.8 4.8 0.00 0.00 0.00 42 1004.9
20260509201016 21 357 1.6 3.2 0.00 0.00 0.00 42 1005.2
20260509200515 21 306 1.6 3.2 0.00 0.00 0.00 42 1005.2
20260509200013 20 268 1.6 1.6 0.00 0.00 0.00 47 1004.9
20260509195508 20 199 4.8 4.8 0.00 0.00 0.00 41 1004.9
20260509195008 19 246 3.2 3.2 0.00 0.00 0.00 47 1005.4
20260509194504 20 286 4.8 8.0 0.00 0.00 0.00 47 1005.4
20260509194001 19 5 1.6 3.2 0.00 0.00 0.00 46 1005.4
20260509193500 18 290 3.2 3.2 0.00 0.00 0.00 50 1006.0
20260509192957 18 267 3.2 3.2 0.00 0.00 0.00 48 1005.9
20260509192454 18 195 3.2 8.0 0.00 0.00 0.00 48 1005.8
20260509191949 18 275 6.4 9.7 0.00 0.00 0.00 46 1005.9
20260509191444 18 275 4.8 4.8 0.00 0.00 0.00 50 1005.8
20260509190940 18 250 3.2 3.2 0.00 0.00 0.00 48 1005.8
20260509190437 18 260 3.2 3.2 0.00 0.00 0.00 46 1005.7
20260509185935 18 221 8.0 12.9 0.00 0.00 0.00 45 1005.6
20260509185432 18 265 6.4 9.7 0.00 0.00 0.00 50 1005.5
20260509184929 19 277 3.2 4.8 0.00 0.00 0.00 47 1005.4
20260509184427 19 246 8.0 9.7 0.00 0.00 0.00 50 1005.5
20260509183923 18 298 4.8 4.8 0.00 0.00 0.00 49 1005.2
20260509183417 19 302 8.0 11.3 0.00 0.00 0.00 53 1005.2
20260509182914 19 11 6.4 9.7 0.00 0.00 0.00 54 1005.2
20260509182411 19 121 6.4 9.7 0.00 0.00 0.00 56 1005.1
20260509181908 20 279 4.8 4.8 0.00 0.00 0.00 56 1005.0
20260509181405 20 176 3.2 4.8 0.00 0.00 0.00 55 1005.2
20260509180903 19 267 3.2 3.2 0.00 0.00 0.00 57 1004.8
20260509180358 18 358 6.4 9.7 0.00 0.00 0.00 60 1004.9
20260509175855 19 296 4.8 4.8 0.00 0.00 0.00 61 1004.9
20260509175351 19 258 3.2 4.8 0.00 0.00 0.00 59 1004.6
20260509174848 20 275 4.8 4.8 0.00 0.00 0.00 57 1004.4
20260509174344 19 253 3.2 3.2 0.00 0.00 0.00 56 1004.6
20260509173839 19 155 6.4 14.5 0.00 0.00 0.00 56 1004.2
20260509173335 20 316 8.0 11.3 0.00 0.00 0.00 55 1004.4
20260509172831 20 230 8.0 9.7 0.00 0.00 0.00 54 1004.1
20260509172328 20 226 4.8 8.0 0.00 0.00 0.00 57 1004.4
20260509171824 21 162 4.8 8.0 0.00 0.00 0.00 55 1004.6
20260509171320 20 308 1.6 3.2 0.00 0.00 0.00 59 1004.3
20260509170817 20 186 4.8 4.8 0.00 0.00 0.00 57 1004.7
20260509170312 20 293 3.2 4.8 0.00 0.00 0.00 60 1004.8
20260509165812 20 270 4.8 9.7 0.00 0.00 0.00 55 1004.4
20260509165307 20 241 3.2 3.2 0.00 0.00 0.00 59 1004.6
20260509164803 20 216 6.4 11.3 0.00 0.00 0.00 56 1004.6
20260509164300 19 302 1.6 1.6 0.00 0.00 0.00 59 1004.6
20260509163756 20 197 3.2 3.2 0.00 0.00 0.00 59 1004.3
20260509163253 20 302 1.6 1.6 0.00 0.00 0.00 61 1004.2
20260509162752 20 322 3.2 3.2 0.00 0.00 0.00 57 1004.4
20260509162245 20 228 3.2 3.2 0.00 0.00 0.00 61 1004.2
20260509161741 19 227 1.6 3.2 0.00 0.00 0.00 60 1004.2
20260509161238 19 181 4.8 4.8 0.00 0.00 0.00 58 1004.3
20260509160733 19 236 9.7 12.9 0.00 0.00 0.00 59 1004.2
20260509160230 19 134 4.8 8.0 0.00 0.00 0.00 60 1004.1
20260509155724 20 174 3.2 4.8 0.00 0.00 0.00 61 1004.4
20260509155221 19 67 4.8 9.7 0.00 0.00 0.00 60 1004.3
20260509154717 18 139 8.0 9.7 0.00 0.00 0.00 62 1004.4
20260509154215 18 214 6.4 8.0 0.00 0.00 0.00 64 1004.7
20260509153712 17 141 8.0 9.7 0.00 0.00 0.00 63 1004.6
20260509153208 18 159 3.2 4.8 0.00 0.00 0.00 64 1004.7
20260509152704 18 233 8.0 9.7 0.00 0.00 0.00 63 1004.9
20260509152201 18 218 1.6 3.2 0.00 0.00 0.00 66 1004.7
20260509151658 18 181 4.8 9.7 0.00 0.00 0.00 64 1004.9
20260509151155 17 176 4.8 4.8 0.00 0.00 0.00 63 1004.9
20260509150653 17 271 1.6 1.6 0.00 0.00 0.00 67 1004.8
20260509150151 17 182 9.7 12.9 0.00 0.00 0.00 66 1004.9
20260509145647 17 192 3.2 3.2 0.00 0.00 0.00 69 1004.8
20260509145142 17 287 1.6 1.6 0.00 0.00 0.00 70 1005.0
20260509144639 16 186 1.6 3.2 0.00 0.00 0.00 72 1004.4
20260509144136 15 242 3.2 4.8 0.00 0.00 0.00 72 1004.6
20260509143633 16 251 1.6 3.2 0.00 0.00 0.00 73 1004.8
20260509143131 16 235 8.0 11.3 0.00 0.00 0.00 73 1004.8
20260509142626 16 216 0.0 1.6 0.00 0.00 0.00 75 1004.7
20260509142123 16 262 1.6 3.2 0.00 0.00 0.00 75 1004.8
20260509141619 15 194 4.8 8.0 0.00 0.00 0.00 75 1004.7
20260509141115 15 199 3.2 3.2 0.00 0.00 0.00 78 1005.0
20260509140612 15 141 4.8 4.8 0.00 0.00 0.00 78 1005.1
20260509140110 15 240 1.6 1.6 0.00 0.00 0.00 78 1004.8
20260509135607 14 240 1.6 1.6 0.00 0.00 0.00 80 1005.1
20260509135105 13 242 1.6 3.2 0.00 0.00 0.00 83 1005.3
20260509134601 13 195 4.8 4.8 0.00 0.00 0.00 83 1005.2
20260509134059 14 256 3.2 3.2 0.00 0.00 0.00 83 1005.3
20260509133556 13 237 1.6 1.6 0.00 0.00 0.00 86 1005.5
20260509133053 13 246 1.6 3.2 0.00 0.00 0.00 87 1005.3
20260509132551 13 238 1.6 1.6 0.00 0.00 0.00 87 1005.4
20260509132050 13 236 1.6 3.2 0.00 0.00 0.00 87 1005.6
20260509131545 12 256 3.2 3.2 0.00 0.00 0.00 89 1005.5
20260509131042 12 259 1.6 1.6 0.00 0.00 0.00 90 1005.5
20260509130537 12 262 1.6 1.6 0.00 0.00 0.00 90 1005.7
20260509130035 12 252 1.6 1.6 0.00 0.00 0.00 90 1006.0
20260509125531 12 225 0.0 1.6 0.00 0.00 0.00 90 1005.8
20260509125028 11 329 3.2 3.2 0.00 0.00 0.00 91 1005.9
20260509124524 11 238 1.6 1.6 0.00 0.00 0.00 91 1006.0
20260509124022 11 244 3.2 4.8 0.00 0.00 0.00 91 1005.7
20260509123520 11 237 1.6 1.6 0.00 0.00 0.00 92 1006.0
20260509123016 11 240 1.6 1.6 0.00 0.00 0.00 92 1005.9
20260509122512 11 186 4.8 8.0 0.00 0.00 0.00 92 1006.1
20260509122009 11 242 1.6 1.6 0.00 0.00 0.00 92 1006.4
20260509121506 11 246 1.6 1.6 0.00 0.00 0.00 92 1006.5
20260509121004 11 249 3.2 3.2 0.00 0.00 0.00 93 1006.4
20260509120502 11 169 3.2 4.8 0.00 0.00 0.00 93 1006.5
20260509120000 10 176 3.2 3.2 0.00 0.00 0.00 94 1006.6
20260509115456 10 250 1.6 3.2 0.00 0.00 0.00 95 1006.5
20260509114954 10 216 3.2 3.2 0.00 0.00 0.00 95 1006.5
20260509114452 10 258 0.0 1.6 0.00 0.00 0.00 96 1006.6
20260509113951 10 260 1.6 3.2 0.00 0.00 0.00 96 1006.5
20260509113448 10 246 1.6 1.6 0.00 0.00 0.00 97 1006.6
20260509112945 10 263 1.6 1.6 0.00 0.00 0.00 97 1006.7
20260509112443 10 239 1.6 1.6 0.00 0.00 0.00 97 1006.3
20260509111939 9 225 4.8 8.0 0.00 0.00 0.00 97 1006.3
20260509111437 9 242 1.6 1.6 0.00 0.00 0.00 97 1006.2
20260509110934 9 263 1.6 1.6 0.00 0.00 0.00 97 1006.4
20260509110429 9 263 0.0 0.0 0.00 0.00 0.00 97 1006.3
20260509105928 9 246 3.2 3.2 0.00 0.00 0.00 97 1006.2
20260509105426 9 259 0.0 1.6 0.00 0.00 0.00 97 1006.0
20260509104923 8 265 0.0 0.0 0.00 0.00 0.00 97 1006.2
20260509104420 8 268 0.0 0.0 0.00 0.00 0.00 97 1006.1
20260509103917 8 245 0.0 0.0 0.00 0.00 0.00 98 1006.3
20260509103414 8 263 0.0 0.0 0.00 0.00 0.00 97 1006.1
20260509102913 8 263 0.0 0.0 0.00 0.00 0.00 97 1006.2
20260509102410 8 256 0.0 0.0 0.00 0.00 0.00 98 1006.1
20260509101905 7 271 0.0 0.0 0.00 0.00 0.00 97 1006.3
20260509101401 7 267 0.0 0.0 0.00 0.00 0.00 97 1006.3
20260509100859 7 276 0.0 0.0 0.00 0.00 0.00 97 1006.4
20260509100356 7 276 0.0 0.0 0.00 0.00 0.00 97 1006.5
20260509095853 7 278 0.0 0.0 0.00 0.00 0.00 97 1006.2
20260509095350 7 275 0.0 0.0 0.00 0.00 0.00 97 1006.3
20260509094847 7 278 0.0 0.0 0.00 0.00 0.00 97 1006.5
20260509094344 7 268 0.0 0.0 0.00 0.00 0.00 97 1006.7
20260509093842 7 276 0.0 0.0 0.00 0.00 0.00 97 1006.7
20260509093338 7 272 0.0 0.0 0.00 0.00 0.00 97 1006.5
20260509092837 6 276 0.0 0.0 0.00 0.00 0.00 96 1006.9
20260509092334 6 284 0.0 0.0 0.00 0.00 0.00 96 1006.7
20260509091832 6 276 0.0 0.0 0.00 0.00 0.00 96 1006.8
20260509091329 6 276 0.0 0.0 0.00 0.00 0.00 96 1006.6
20260509090826 6 276 0.0 0.0 0.00 0.00 0.00 96 1006.8
20260509090323 6 276 0.0 0.0 0.00 0.00 0.00 96 1006.7
20260509085821 6 276 0.0 0.0 0.00 0.00 0.00 96 1007.0
20260509085318 6 278 0.0 0.0 0.00 0.00 0.00 96 1007.1
20260509084814 5 278 0.0 0.0 0.00 0.00 0.00 95 1006.8
20260509084311 6 278 0.0 0.0 0.00 0.00 0.00 95 1006.9
20260509083809 6 278 0.0 0.0 0.00 0.00 0.00 95 1006.9
20260509083306 6 278 0.0 0.0 0.00 0.00 0.00 95 1006.8
20260509082802 6 278 0.0 0.0 0.00 0.00 0.00 95 1006.6
20260509082259 6 276 0.0 0.0 0.00 0.00 0.00 95 1006.7
20260509081756 6 276 0.0 0.0 0.00 0.00 0.00 95 1007.0
20260509081253 6 276 0.0 0.0 0.00 0.00 0.00 95 1006.9
20260509080751 6 276 0.0 0.0 0.00 0.00 0.00 95 1006.9
20260509080249 7 270 0.0 0.0 0.00 0.00 0.00 95 1007.1
20260509075747 7 276 0.0 0.0 0.00 0.00 0.00 95 1007.0
20260509075244 6 272 0.0 0.0 0.00 0.00 0.00 95 1007.0
20260509074741 7 270 0.0 0.0 0.00 0.00 0.00 94 1007.0
20260509074239 6 278 0.0 0.0 0.00 0.00 0.00 94 1006.9
20260509073734 6 272 0.0 0.0 0.00 0.00 0.00 94 1006.9
20260509073231 6 272 0.0 0.0 0.00 0.00 0.00 94 1007.1
20260509072728 6 272 0.0 0.0 0.00 0.00 0.00 94 1007.2
20260509072225 6 272 0.0 0.0 0.00 0.00 0.00 93 1007.1
20260509071721 6 272 0.0 0.0 0.00 0.00 0.00 93 1007.4
20260509071219 6 276 0.0 0.0 0.00 0.00 0.00 93 1007.0
20260509070715 6 275 0.0 0.0 0.00 0.00 0.00 93 1007.4
20260509070212 5 272 0.0 0.0 0.00 0.00 0.00 93 1007.3
20260509065708 5 275 0.0 0.0 0.00 0.00 0.00 92 1007.4
20260509065204 5 275 0.0 0.0 0.00 0.00 0.00 92 1007.5
20260509064701 5 275 0.0 0.0 0.00 0.00 0.00 92 1007.6
20260509064159 4 276 0.0 0.0 0.00 0.00 0.00 91 1007.7
20260509063656 4 275 0.0 0.0 0.00 0.00 0.00 90 1007.7
20260509063152 4 276 0.0 0.0 0.00 0.00 0.00 89 1007.8
20260509062649 4 276 0.0 0.0 0.00 0.00 0.00 88 1007.6
20260509062146 4 276 0.0 0.0 0.00 0.00 0.00 88 1007.8
20260509061643 4 276 0.0 0.0 0.00 0.00 0.00 88 1007.9
20260509061141 3 276 0.0 0.0 0.00 0.00 0.00 86 1008.2
20260509060638 3 276 0.0 0.0 0.00 0.00 0.00 86 1008.1
20260509060134 3 276 0.0 0.0 0.00 0.00 0.00 85 1008.4
20260509055630 3 276 0.0 0.0 0.00 0.00 0.00 85 1008.4
20260509055126 3 276 0.0 0.0 0.00 0.00 0.00 85 1008.6
20260509054623 3 276 0.0 0.0 0.00 0.00 0.00 86 1008.4
20260509054120 3 276 0.0 0.0 0.00 0.00 0.00 86 1008.2
20260509053619 3 276 0.0 0.0 0.00 0.00 0.00 85 1008.7
20260509053115 3 276 0.0 0.0 0.00 0.00 0.00 85 1008.5
20260509052613 3 276 0.0 0.0 0.00 0.00 0.00 85 1008.5
20260509052111 3 276 0.0 0.0 0.00 0.00 0.00 85 1008.6
20260509051608 3 276 0.0 0.0 0.00 0.00 0.00 84 1008.5
20260509051105 3 276 0.0 0.0 0.00 0.00 0.00 83 1008.6
20260509050602 3 272 0.0 0.0 0.00 0.00 0.00 84 1008.7
20260509050058 3 272 0.0 0.0 0.00 0.00 0.00 84 1008.6
20260509045556 3 272 0.0 0.0 0.00 0.00 0.00 83 1008.7
20260509045053 3 272 0.0 0.0 0.00 0.00 0.00 81 1008.6
20260509044550 3 272 0.0 0.0 0.00 0.00 0.00 83 1008.7
20260509044048 3 272 0.0 0.0 0.00 0.00 0.00 84 1008.8
20260509043544 4 272 0.0 0.0 0.00 0.00 0.00 83 1008.8
20260509043039 4 272 0.0 0.0 0.00 0.00 0.00 84 1008.9
20260509042536 4 272 0.0 0.0 0.00 0.00 0.00 83 1008.9
20260509042032 4 272 0.0 0.0 0.00 0.00 0.00 82 1008.9
20260509041529 4 272 0.0 0.0 0.00 0.00 0.00 81 1008.8
20260509041027 5 272 0.0 0.0 0.00 0.00 0.00 82 1009.1
20260509040525 5 272 0.0 0.0 0.00 0.00 0.00 80 1008.9
20260509040021 5 272 0.0 0.0 0.00 0.00 0.00 79 1009.1
20260509035518 5 272 0.0 0.0 0.00 0.00 0.00 78 1009.0
20260509035015 5 272 0.0 0.0 0.00 0.00 0.00 78 1009.0
20260509034513 5 272 0.0 0.0 0.00 0.00 0.00 78 1008.9
20260509034010 5 272 0.0 0.0 0.00 0.00 0.00 78 1008.9
20260509033507 5 272 0.0 0.0 0.00 0.00 0.00 77 1009.2
20260509033004 5 272 0.0 0.0 0.00 0.00 0.00 76 1009.2
20260509032501 5 272 0.0 0.0 0.00 0.00 0.00 76 1008.9
20260509031958 5 272 0.0 0.0 0.00 0.00 0.00 77 1009.1
20260509031455 5 272 0.0 0.0 0.00 0.00 0.00 73 1009.0
20260509030953 5 272 0.0 0.0 0.00 0.00 0.00 72 1009.2
20260509030450 6 272 0.0 0.0 0.00 0.00 0.00 73 1009.3
20260509025947 6 272 0.0 0.0 0.00 0.00 0.00 72 1009.4
20260509025443 6 272 0.0 0.0 0.00 0.00 0.00 70 1009.4
20260509024938 6 272 0.0 0.0 0.00 0.00 0.00 68 1009.3
20260509024435 6 272 0.0 0.0 0.00 0.00 0.00 68 1009.4
20260509023932 6 272 0.0 0.0 0.00 0.00 0.00 65 1009.4
20260509023429 6 272 0.0 0.0 0.00 0.00 0.00 67 1009.4
20260509022926 6 272 0.0 0.0 0.00 0.00 0.00 66 1009.4
20260509022423 6 272 0.0 0.0 0.00 0.00 0.00 64 1009.4
20260509021920 7 272 0.0 0.0 0.00 0.00 0.00 65 1009.5
20260509021417 7 272 0.0 0.0 0.00 0.00 0.00 65 1009.2
20260509020914 7 272 0.0 0.0 0.00 0.00 0.00 64 1009.3
20260509020413 7 272 0.0 0.0 0.00 0.00 0.00 60 1009.5
20260509015909 7 272 0.0 0.0 0.00 0.00 0.00 56 1009.3